contact:dominique.lefevre@mio.osupytheas.fr, maurice.libes@osupytheas.fr, didier.mallarino@osupytheas.fr
Project:EMSO http://www.emso-fr.org/EMSO-France
Depth: 2436.0 m
Title:EMSO Ligure Ouest : Data MII capteur CSTAR
DateTime,Latitude,Longitude,Instrument_Serial,Reference_Counts,Signal_Counts,Corrected_Signal_raw_counts,Calculated_Beam_c_inverse_meters,Internal_thermistor_counts
DateTime,Latitude,Longitude,Instrument_Serial,Reference_Counts,Signal_Counts,Corrected_Signal_raw_counts,Calculated_Beam_c_inverse_meters,Internal_thermistor_counts
2020-04-14T00:02:46,42.805,6.029,CST-1368DR,6470,9067,15186,0.112,551
2020-04-14T00:05:48,42.805,6.029,CST-1368DR,6470,9064,15182,0.113,551
2020-04-14T00:08:50,42.805,6.029,CST-1368DR,6470,9064,15182,0.113,551
2020-04-14T00:11:51,42.805,6.029,CST-1368DR,6470,9066,15186,0.112,551
2020-04-14T00:14:53,42.805,6.029,CST-1368DR,6470,9066,15186,0.112,551
2020-04-14T00:17:55,42.805,6.029,CST-1368DR,6470,9064,15182,0.113,551
2020-04-14T00:20:56,42.805,6.029,CST-1368DR,6470,9066,15184,0.112,551
2020-04-14T00:23:58,42.805,6.029,CST-1368DR,6470,9065,15184,0.112,551
2020-04-14T00:27:00,42.805,6.029,CST-1368DR,6470,9066,15184,0.112,551
2020-04-14T00:30:01,42.805,6.029,CST-1368DR,6470,9065,15184,0.112,551
2020-04-14T00:33:03,42.805,6.029,CST-1368DR,6470,9065,15184,0.112,551
2020-04-14T00:36:05,42.805,6.029,CST-1368DR,6470,9065,15184,0.112,551
2020-04-14T00:39:07,42.805,6.029,CST-1368DR,6470,9066,15185,0.112,550
2020-04-14T00:42:08,42.805,6.029,CST-1368DR,6470,9066,15185,0.112,551
2020-04-14T00:45:10,42.805,6.029,CST-1368DR,6470,9065,15183,0.112,551
2020-04-14T00:48:12,42.805,6.029,CST-1368DR,6469,9064,15184,0.112,551
2020-04-14T00:51:13,42.805,6.029,CST-1368DR,6469,9065,15186,0.112,551
2020-04-14T00:54:15,42.805,6.029,CST-1368DR,6470,9064,15182,0.113,551
2020-04-14T00:57:17,42.805,6.029,CST-1368DR,6469,9064,15185,0.112,551
2020-04-14T01:00:18,42.805,6.029,CST-1368DR,6470,9064,15181,0.113,551
2020-04-14T01:03:20,42.805,6.029,CST-1368DR,6470,9064,15182,0.113,551
2020-04-14T01:06:22,42.805,6.029,CST-1368DR,6470,9064,15182,0.113,551
2020-04-14T01:09:23,42.805,6.029,CST-1368DR,6470,9065,15184,0.112,551
2020-04-14T01:12:25,42.805,6.029,CST-1368DR,6470,9064,15182,0.113,551
2020-04-14T01:15:27,42.805,6.029,CST-1368DR,6470,9066,15184,0.112,551
2020-04-14T01:18:28,42.805,6.029,CST-1368DR,6469,9065,15186,0.112,551
2020-04-14T01:21:30,42.805,6.029,CST-1368DR,6470,9064,15182,0.113,551
2020-04-14T01:24:32,42.805,6.029,CST-1368DR,6469,9066,15187,0.111,551
2020-04-14T01:27:33,42.805,6.029,CST-1368DR,6469,9065,15186,0.112,551
2020-04-14T01:30:35,42.805,6.029,CST-1368DR,6469,9064,15184,0.112,551
2020-04-14T01:33:37,42.805,6.029,CST-1368DR,6469,9066,15187,0.111,551
2020-04-14T01:36:39,42.805,6.029,CST-1368DR,6469,9064,15185,0.112,551
2020-04-14T01:39:40,42.805,6.029,CST-1368DR,6469,9064,15185,0.112,551
2020-04-14T01:42:42,42.805,6.029,CST-1368DR,6469,9064,15185,0.112,551
2020-04-14T01:45:44,42.805,6.029,CST-1368DR,6469,9064,15185,0.112,551
2020-04-14T01:48:45,42.805,6.029,CST-1368DR,6469,9064,15185,0.112,551
2020-04-14T01:51:47,42.805,6.029,CST-1368DR,6469,9064,15183,0.112,551
2020-04-14T01:54:49,42.805,6.029,CST-1368DR,6469,9064,15184,0.112,551
2020-04-14T01:57:50,42.805,6.029,CST-1368DR,6469,9062,15181,0.113,551
2020-04-14T02:00:52,42.805,6.029,CST-1368DR,6469,9064,15185,0.112,551
2020-04-14T02:03:54,42.805,6.029,CST-1368DR,6469,9064,15185,0.112,551
2020-04-14T02:06:56,42.805,6.029,CST-1368DR,6469,9064,15184,0.112,551
2020-04-14T02:09:57,42.805,6.029,CST-1368DR,6469,9064,15184,0.112,551
2020-04-14T02:12:59,42.805,6.029,CST-1368DR,6469,9064,15184,0.112,551
2020-04-14T02:16:01,42.805,6.029,CST-1368DR,6469,9064,15184,0.112,551
2020-04-14T02:19:03,42.805,6.029,CST-1368DR,6469,9064,15184,0.112,551
2020-04-14T02:22:04,42.805,6.029,CST-1368DR,6469,9064,15184,0.112,551
2020-04-14T02:25:06,42.805,6.029,CST-1368DR,6469,9064,15185,0.112,551
2020-04-14T02:28:08,42.805,6.029,CST-1368DR,6469,9065,15185,0.112,551
2020-04-14T02:31:09,42.805,6.029,CST-1368DR,6469,9064,15184,0.112,551
2020-04-14T02:34:11,42.805,6.029,CST-1368DR,6469,9064,15184,0.112,551
2020-04-14T02:37:13,42.805,6.029,CST-1368DR,6469,9064,15184,0.112,551
2020-04-14T02:40:15,42.805,6.029,CST-1368DR,6469,9064,15185,0.112,551
2020-04-14T02:43:17,42.805,6.029,CST-1368DR,6469,9064,15185,0.112,551
2020-04-14T02:46:18,42.805,6.029,CST-1368DR,6469,9064,15185,0.112,551
2020-04-14T02:49:20,42.805,6.029,CST-1368DR,6469,9064,15184,0.112,551
2020-04-14T02:52:22,42.805,6.029,CST-1368DR,6469,9065,15186,0.112,551
2020-04-14T02:55:23,42.805,6.029,CST-1368DR,6469,9065,15186,0.112,551
2020-04-14T02:58:25,42.805,6.029,CST-1368DR,6469,9065,15186,0.112,551
2020-04-14T03:01:27,42.805,6.029,CST-1368DR,6469,9064,15184,0.112,551
2020-04-14T03:04:28,42.805,6.029,CST-1368DR,6469,9065,15186,0.112,551
2020-04-14T03:07:30,42.805,6.029,CST-1368DR,6469,9064,15185,0.112,551
2020-04-14T03:10:32,42.805,6.029,CST-1368DR,6469,9064,15184,0.112,551
2020-04-14T03:13:34,42.805,6.029,CST-1368DR,6469,9063,15183,0.112,550
2020-04-14T03:16:35,42.805,6.029,CST-1368DR,6469,9063,15183,0.112,551
2020-04-14T03:19:37,42.805,6.029,CST-1368DR,6469,9065,15185,0.112,550
2020-04-14T03:22:39,42.805,6.029,CST-1368DR,6469,9064,15184,0.112,551
2020-04-14T03:25:40,42.805,6.029,CST-1368DR,6469,9064,15185,0.112,551
2020-04-14T03:28:42,42.805,6.029,CST-1368DR,6469,9063,15182,0.113,551
2020-04-14T03:31:44,42.805,6.029,CST-1368DR,6469,9064,15185,0.112,551
2020-04-14T03:34:45,42.805,6.029,CST-1368DR,6469,9064,15184,0.112,551
2020-04-14T03:37:47,42.805,6.029,CST-1368DR,6469,9064,15184,0.112,551
2020-04-14T03:40:49,42.805,6.029,CST-1368DR,6469,9064,15185,0.112,551
2020-04-14T03:43:50,42.805,6.029,CST-1368DR,6469,9065,15186,0.112,551
2020-04-14T03:46:52,42.805,6.029,CST-1368DR,6469,9064,15184,0.112,551
2020-04-14T03:49:54,42.805,6.029,CST-1368DR,6469,9063,15182,0.113,550
2020-04-14T03:52:56,42.805,6.029,CST-1368DR,6469,9065,15186,0.112,551
2020-04-14T03:55:57,42.805,6.029,CST-1368DR,6469,9064,15184,0.112,551
2020-04-14T03:58:59,42.805,6.029,CST-1368DR,6469,9063,15183,0.112,551
2020-04-14T04:02:01,42.805,6.029,CST-1368DR,6469,9064,15185,0.112,551
2020-04-14T04:05:03,42.805,6.029,CST-1368DR,6469,9064,15183,0.112,551
2020-04-14T04:08:04,42.805,6.029,CST-1368DR,6469,9063,15182,0.113,551
2020-04-14T04:11:06,42.805,6.029,CST-1368DR,6469,9064,15183,0.112,551
2020-04-14T04:14:08,42.805,6.029,CST-1368DR,6469,9065,15185,0.112,551
2020-04-14T04:17:09,42.805,6.029,CST-1368DR,6469,9065,15185,0.112,551
2020-04-14T04:20:11,42.805,6.029,CST-1368DR,6469,9064,15183,0.112,551
2020-04-14T04:23:13,42.805,6.029,CST-1368DR,6469,9064,15184,0.112,551
2020-04-14T04:26:14,42.805,6.029,CST-1368DR,6469,9065,15186,0.112,551
2020-04-14T04:29:16,42.805,6.029,CST-1368DR,6469,9064,15184,0.112,551
2020-04-14T04:32:18,42.805,6.029,CST-1368DR,6469,9065,15186,0.112,551
2020-04-14T04:35:19,42.805,6.029,CST-1368DR,6469,9064,15185,0.112,550
2020-04-14T04:38:21,42.805,6.029,CST-1368DR,6469,9062,15180,0.113,551
2020-04-14T04:41:23,42.805,6.029,CST-1368DR,6469,9063,15183,0.112,551
2020-04-14T04:44:25,42.805,6.029,CST-1368DR,6469,9064,15184,0.112,551
2020-04-14T04:47:26,42.805,6.029,CST-1368DR,6469,9064,15184,0.112,551
2020-04-14T04:50:28,42.805,6.029,CST-1368DR,6469,9064,15185,0.112,551
2020-04-14T04:53:30,42.805,6.029,CST-1368DR,6469,9063,15182,0.113,551
2020-04-14T04:56:31,42.805,6.029,CST-1368DR,6469,9064,15185,0.112,551
2020-04-14T04:59:33,42.805,6.029,CST-1368DR,6469,9064,15184,0.112,551
2020-04-14T05:02:35,42.805,6.029,CST-1368DR,6469,9064,15184,0.112,551
2020-04-14T05:05:36,42.805,6.029,CST-1368DR,6469,9064,15184,0.112,551
2020-04-14T05:08:38,42.805,6.029,CST-1368DR,6469,9063,15182,0.113,551
2020-04-14T05:11:40,42.805,6.029,CST-1368DR,6469,9064,15184,0.112,551
2020-04-14T05:14:41,42.805,6.029,CST-1368DR,6469,9063,15183,0.112,551
2020-04-14T05:17:43,42.805,6.029,CST-1368DR,6469,9064,15183,0.112,551
2020-04-14T05:20:45,42.805,6.029,CST-1368DR,6468,9064,15185,0.112,551
2020-04-14T05:23:47,42.805,6.029,CST-1368DR,6469,9064,15183,0.112,551
2020-04-14T05:26:48,42.805,6.029,CST-1368DR,6469,9062,15181,0.113,551
2020-04-14T05:29:50,42.805,6.029,CST-1368DR,6469,9063,15182,0.113,551
2020-04-14T05:32:52,42.805,6.029,CST-1368DR,6469,9064,15184,0.112,551
2020-04-14T05:35:53,42.805,6.029,CST-1368DR,6469,9064,15185,0.112,551
2020-04-14T05:38:55,42.805,6.029,CST-1368DR,6469,9064,15183,0.112,551
2020-04-14T05:41:57,42.805,6.029,CST-1368DR,6469,9064,15184,0.112,551
2020-04-14T05:44:59,42.805,6.029,CST-1368DR,6469,9064,15184,0.112,550
2020-04-14T05:48:00,42.805,6.029,CST-1368DR,6469,9064,15184,0.112,551
2020-04-14T05:51:02,42.805,6.029,CST-1368DR,6469,9063,15182,0.113,551
2020-04-14T05:54:04,42.805,6.029,CST-1368DR,6469,9064,15184,0.112,551
2020-04-14T05:57:05,42.805,6.029,CST-1368DR,6469,9063,15183,0.112,551
2020-04-14T06:00:07,42.805,6.029,CST-1368DR,6469,9063,15183,0.112,551
2020-04-14T06:03:09,42.805,6.029,CST-1368DR,6469,9063,15182,0.113,551
2020-04-14T06:06:11,42.805,6.029,CST-1368DR,6469,9062,15181,0.113,551
2020-04-14T06:09:13,42.805,6.029,CST-1368DR,6469,9062,15181,0.113,551
2020-04-14T06:12:14,42.805,6.029,CST-1368DR,6469,9064,15183,0.112,551
2020-04-14T06:15:16,42.805,6.029,CST-1368DR,6468,9063,15184,0.112,551
2020-04-14T06:18:18,42.805,6.029,CST-1368DR,6468,9063,15185,0.112,551
2020-04-14T06:21:19,42.805,6.029,CST-1368DR,6469,9064,15183,0.112,550
2020-04-14T06:24:21,42.805,6.029,CST-1368DR,6469,9064,15184,0.112,551
2020-04-14T06:27:23,42.805,6.029,CST-1368DR,6469,9061,15179,0.114,550
2020-04-14T06:30:24,42.805,6.029,CST-1368DR,6468,9063,15185,0.112,551
2020-04-14T06:33:26,42.805,6.029,CST-1368DR,6468,9064,15185,0.112,551
2020-04-14T06:36:28,42.805,6.029,CST-1368DR,6468,9064,15186,0.112,551
2020-04-14T06:39:30,42.805,6.029,CST-1368DR,6468,9063,15184,0.112,551
2020-04-14T06:42:31,42.805,6.029,CST-1368DR,6468,9062,15182,0.113,551
2020-04-14T06:45:33,42.805,6.029,CST-1368DR,6468,9064,15185,0.112,551
2020-04-14T06:48:35,42.805,6.029,CST-1368DR,6468,9063,15184,0.112,551
2020-04-14T06:51:37,42.805,6.029,CST-1368DR,6468,9063,15184,0.112,551
2020-04-14T06:54:38,42.805,6.029,CST-1368DR,6468,9064,15186,0.112,551
2020-04-14T06:57:40,42.805,6.029,CST-1368DR,6469,9063,15182,0.113,551
2020-04-14T07:00:42,42.805,6.029,CST-1368DR,6468,9063,15185,0.112,551
2020-04-14T07:03:43,42.805,6.029,CST-1368DR,6468,9064,15185,0.112,551
2020-04-14T07:06:45,42.805,6.029,CST-1368DR,6468,9064,15185,0.112,551
2020-04-14T07:09:47,42.805,6.029,CST-1368DR,6468,9063,15185,0.112,551
2020-04-14T07:12:49,42.805,6.029,CST-1368DR,6468,9063,15185,0.112,551
2020-04-14T07:15:50,42.805,6.029,CST-1368DR,6468,9063,15184,0.112,551
2020-04-14T07:18:52,42.805,6.029,CST-1368DR,6468,9062,15183,0.112,551
2020-04-14T07:21:54,42.805,6.029,CST-1368DR,6468,9063,15184,0.112,551
2020-04-14T07:24:55,42.805,6.029,CST-1368DR,6468,9064,15186,0.112,551
2020-04-14T07:27:57,42.805,6.029,CST-1368DR,6468,9064,15186,0.112,551
2020-04-14T07:30:59,42.805,6.029,CST-1368DR,6468,9062,15183,0.112,551
2020-04-14T07:34:00,42.805,6.029,CST-1368DR,6468,9062,15183,0.112,551
2020-04-14T07:37:02,42.805,6.029,CST-1368DR,6468,9063,15185,0.112,551
2020-04-14T07:40:04,42.805,6.029,CST-1368DR,6468,9063,15184,0.112,551
2020-04-14T07:43:06,42.805,6.029,CST-1368DR,6468,9063,15184,0.112,551
2020-04-14T07:46:07,42.805,6.029,CST-1368DR,6468,9063,15184,0.112,551
2020-04-14T07:49:09,42.805,6.029,CST-1368DR,6468,9063,15184,0.112,551
2020-04-14T07:52:11,42.805,6.029,CST-1368DR,6468,9064,15185,0.112,551
2020-04-14T07:55:13,42.805,6.029,CST-1368DR,6468,9063,15185,0.112,551
2020-04-14T07:58:14,42.805,6.029,CST-1368DR,6468,9062,15183,0.112,551
2020-04-14T08:01:16,42.805,6.029,CST-1368DR,6468,9063,15184,0.112,551
2020-04-14T08:04:18,42.805,6.029,CST-1368DR,6468,9062,15183,0.112,551
2020-04-14T08:07:19,42.805,6.029,CST-1368DR,6468,9063,15185,0.112,551
2020-04-14T08:10:21,42.805,6.029,CST-1368DR,6468,9063,15185,0.112,551
2020-04-14T08:13:23,42.805,6.029,CST-1368DR,6468,9063,15185,0.112,551
2020-04-14T08:16:24,42.805,6.029,CST-1368DR,6468,9063,15184,0.112,551
2020-04-14T08:19:26,42.805,6.029,CST-1368DR,6468,9063,15184,0.112,551
2020-04-14T08:22:28,42.805,6.029,CST-1368DR,6468,9063,15185,0.112,551
2020-04-14T08:25:30,42.805,6.029,CST-1368DR,6468,9063,15185,0.112,551
2020-04-14T08:28:31,42.805,6.029,CST-1368DR,6468,9063,15184,0.112,550
2020-04-14T08:31:33,42.805,6.029,CST-1368DR,6468,9062,15183,0.112,551
2020-04-14T08:34:35,42.805,6.029,CST-1368DR,6468,9063,15185,0.112,551
2020-04-14T08:37:36,42.805,6.029,CST-1368DR,6468,9063,15185,0.112,551
2020-04-14T08:40:38,42.805,6.029,CST-1368DR,6468,9063,15184,0.112,551
2020-04-14T08:43:40,42.805,6.029,CST-1368DR,6468,9063,15184,0.112,551
2020-04-14T08:46:42,42.805,6.029,CST-1368DR,6468,9063,15184,0.112,551
2020-04-14T08:49:43,42.805,6.029,CST-1368DR,6468,9063,15184,0.112,551
2020-04-14T08:52:45,42.805,6.029,CST-1368DR,6468,9062,15183,0.112,551
2020-04-14T08:55:47,42.805,6.029,CST-1368DR,6468,9063,15184,0.112,551
2020-04-14T08:58:49,42.805,6.029,CST-1368DR,6468,9062,15183,0.112,551
2020-04-14T09:01:50,42.805,6.029,CST-1368DR,6468,9063,15184,0.112,551
2020-04-14T09:04:52,42.805,6.029,CST-1368DR,6468,9063,15184,0.112,550
2020-04-14T09:07:54,42.805,6.029,CST-1368DR,6468,9062,15182,0.113,551
2020-04-14T09:10:55,42.805,6.029,CST-1368DR,6468,9063,15184,0.112,551
2020-04-14T09:13:57,42.805,6.029,CST-1368DR,6468,9062,15183,0.112,551
2020-04-14T09:16:59,42.805,6.029,CST-1368DR,6468,9062,15183,0.112,551
2020-04-14T09:20:00,42.805,6.029,CST-1368DR,6468,9060,15179,0.114,551
2020-04-14T09:23:02,42.805,6.029,CST-1368DR,6468,9062,15183,0.112,551
2020-04-14T09:26:04,42.805,6.029,CST-1368DR,6468,9062,15182,0.113,551
2020-04-14T09:29:05,42.805,6.029,CST-1368DR,6468,9063,15185,0.112,551
2020-04-14T09:32:07,42.805,6.029,CST-1368DR,6468,9062,15183,0.112,551
2020-04-14T09:35:09,42.805,6.029,CST-1368DR,6468,9062,15183,0.112,551
2020-04-14T09:38:11,42.805,6.029,CST-1368DR,6468,9063,15185,0.112,551
2020-04-14T09:41:12,42.805,6.029,CST-1368DR,6468,9063,15184,0.112,550
2020-04-14T09:44:14,42.805,6.029,CST-1368DR,6468,9062,15183,0.112,551
2020-04-14T09:47:16,42.805,6.029,CST-1368DR,6468,9060,15180,0.113,551
2020-04-14T09:50:17,42.805,6.029,CST-1368DR,6468,9062,15182,0.113,551
2020-04-14T09:53:19,42.805,6.029,CST-1368DR,6468,9061,15181,0.113,551
2020-04-14T09:56:21,42.805,6.029,CST-1368DR,6468,9060,15180,0.113,551
2020-04-14T09:59:22,42.805,6.029,CST-1368DR,6468,9062,15183,0.112,551
2020-04-14T10:02:24,42.805,6.029,CST-1368DR,6468,9063,15185,0.112,551
2020-04-14T10:05:26,42.805,6.029,CST-1368DR,6468,9061,15181,0.113,551
2020-04-14T10:08:28,42.805,6.029,CST-1368DR,6468,9062,15183,0.112,551
2020-04-14T10:11:29,42.805,6.029,CST-1368DR,6468,9062,15183,0.112,551
2020-04-14T10:14:31,42.805,6.029,CST-1368DR,6468,9063,15184,0.112,551
2020-04-14T10:17:33,42.805,6.029,CST-1368DR,6468,9062,15183,0.112,551
2020-04-14T10:20:34,42.805,6.029,CST-1368DR,6468,9061,15181,0.113,551
2020-04-14T10:23:36,42.805,6.029,CST-1368DR,6468,9062,15183,0.112,551
2020-04-14T10:26:38,42.805,6.029,CST-1368DR,6468,9062,15182,0.113,551
2020-04-14T10:29:39,42.805,6.029,CST-1368DR,6468,9061,15181,0.113,551
2020-04-14T10:32:41,42.805,6.029,CST-1368DR,6468,9061,15181,0.113,551
2020-04-14T10:35:43,42.805,6.029,CST-1368DR,6468,9062,15183,0.112,551
2020-04-14T10:38:45,42.805,6.029,CST-1368DR,6468,9062,15183,0.112,551
2020-04-14T10:41:46,42.805,6.029,CST-1368DR,6468,9061,15181,0.113,551
2020-04-14T10:44:48,42.805,6.029,CST-1368DR,6468,9062,15183,0.112,551
2020-04-14T10:47:50,42.805,6.029,CST-1368DR,6468,9060,15180,0.113,551
2020-04-14T10:50:51,42.805,6.029,CST-1368DR,6468,9060,15179,0.114,551
2020-04-14T10:53:53,42.805,6.029,CST-1368DR,6468,9062,15183,0.112,551
2020-04-14T10:56:55,42.805,6.029,CST-1368DR,6468,9062,15182,0.113,551
2020-04-14T10:59:57,42.805,6.029,CST-1368DR,6468,9062,15183,0.112,550
2020-04-14T11:02:59,42.805,6.029,CST-1368DR,6468,9061,15181,0.113,551
2020-04-14T11:06:00,42.805,6.029,CST-1368DR,6468,9059,15177,0.114,551
2020-04-14T11:09:02,42.805,6.029,CST-1368DR,6468,9062,15183,0.112,551
2020-04-14T11:12:04,42.805,6.029,CST-1368DR,6468,9059,15178,0.114,551
2020-04-14T11:15:06,42.805,6.029,CST-1368DR,6468,9060,15180,0.113,551
2020-04-14T11:18:07,42.805,6.029,CST-1368DR,6468,9061,15181,0.113,551
2020-04-14T11:21:09,42.805,6.029,CST-1368DR,6468,9061,15181,0.113,551
2020-04-14T11:24:11,42.805,6.029,CST-1368DR,6468,9063,15184,0.112,551
2020-04-14T11:27:13,42.805,6.029,CST-1368DR,6468,9062,15183,0.112,551
2020-04-14T11:30:15,42.805,6.029,CST-1368DR,6468,9061,15181,0.113,551
2020-04-14T11:33:16,42.805,6.029,CST-1368DR,6468,9062,15183,0.112,551
2020-04-14T11:36:18,42.805,6.029,CST-1368DR,6467,9060,15182,0.113,551
2020-04-14T11:39:20,42.805,6.029,CST-1368DR,6467,9062,15185,0.112,551
2020-04-14T11:42:21,42.805,6.029,CST-1368DR,6467,9061,15183,0.112,551
2020-04-14T11:45:23,42.805,6.029,CST-1368DR,6468,9061,15180,0.113,551
2020-04-14T11:48:25,42.805,6.029,CST-1368DR,6468,9062,15182,0.113,551
2020-04-14T11:51:26,42.805,6.029,CST-1368DR,6467,9062,15186,0.112,551
2020-04-14T11:54:28,42.805,6.029,CST-1368DR,6467,9063,15186,0.112,551
2020-04-14T11:57:30,42.805,6.029,CST-1368DR,6467,9062,15185,0.112,551
2020-04-14T12:00:32,42.805,6.029,CST-1368DR,6467,9062,15184,0.112,551
2020-04-14T12:03:33,42.805,6.029,CST-1368DR,6467,9062,15185,0.112,550
2020-04-14T12:06:35,42.805,6.029,CST-1368DR,6467,9060,15182,0.113,551
2020-04-14T12:09:37,42.805,6.029,CST-1368DR,6467,9061,15183,0.112,551
2020-04-14T12:12:38,42.805,6.029,CST-1368DR,6467,9062,15184,0.112,551
2020-04-14T12:15:40,42.805,6.029,CST-1368DR,6467,9061,15183,0.112,551
2020-04-14T12:18:42,42.805,6.029,CST-1368DR,6467,9062,15185,0.112,551
2020-04-14T12:21:43,42.805,6.029,CST-1368DR,6467,9063,15186,0.112,551
2020-04-14T12:24:45,42.805,6.029,CST-1368DR,6467,9061,15183,0.112,551
2020-04-14T12:27:47,42.805,6.029,CST-1368DR,6467,9062,15184,0.112,551
2020-04-14T12:30:49,42.805,6.029,CST-1368DR,6467,9062,15184,0.112,551
2020-04-14T12:33:51,42.805,6.029,CST-1368DR,6467,9062,15184,0.112,551
2020-04-14T12:36:52,42.805,6.029,CST-1368DR,6467,9061,15183,0.112,551
2020-04-14T12:39:54,42.805,6.029,CST-1368DR,6467,9060,15182,0.113,551
2020-04-14T12:42:56,42.805,6.029,CST-1368DR,6467,9061,15183,0.112,551
2020-04-14T12:45:57,42.805,6.029,CST-1368DR,6467,9061,15183,0.112,551
2020-04-14T12:48:59,42.805,6.029,CST-1368DR,6467,9061,15183,0.112,551
2020-04-14T12:52:01,42.805,6.029,CST-1368DR,6467,9061,15183,0.112,551
2020-04-14T12:55:03,42.805,6.029,CST-1368DR,6467,9061,15183,0.112,551
2020-04-14T12:58:04,42.805,6.029,CST-1368DR,6467,9062,15184,0.112,551
2020-04-14T13:01:06,42.805,6.029,CST-1368DR,6467,9060,15181,0.113,551
2020-04-14T13:04:08,42.805,6.029,CST-1368DR,6467,9061,15183,0.112,551
2020-04-14T13:07:09,42.805,6.029,CST-1368DR,6467,9061,15183,0.112,551
2020-04-14T13:10:11,42.805,6.029,CST-1368DR,6467,9060,15182,0.113,551
2020-04-14T13:13:13,42.805,6.029,CST-1368DR,6467,9061,15183,0.112,551
2020-04-14T13:16:14,42.805,6.029,CST-1368DR,6467,9061,15183,0.112,551
2020-04-14T13:19:16,42.805,6.029,CST-1368DR,6467,9060,15182,0.113,551
2020-04-14T13:22:18,42.805,6.029,CST-1368DR,6467,9059,15181,0.113,551
2020-04-14T13:25:20,42.805,6.029,CST-1368DR,6467,9060,15181,0.113,551
2020-04-14T13:28:21,42.805,6.029,CST-1368DR,6467,9060,15182,0.113,551
2020-04-14T13:31:23,42.805,6.029,CST-1368DR,6467,9062,15185,0.112,551
2020-04-14T13:34:25,42.805,6.029,CST-1368DR,6467,9061,15183,0.112,551
2020-04-14T13:37:27,42.805,6.029,CST-1368DR,6467,9060,15182,0.113,551
2020-04-14T13:40:28,42.805,6.029,CST-1368DR,6467,9060,15182,0.113,550
2020-04-14T13:43:30,42.805,6.029,CST-1368DR,6467,9061,15183,0.112,551
2020-04-14T13:46:32,42.805,6.029,CST-1368DR,6467,9062,15184,0.112,551
2020-04-14T13:49:33,42.805,6.029,CST-1368DR,6467,9060,15182,0.113,551
2020-04-14T13:52:35,42.805,6.029,CST-1368DR,6467,9062,15184,0.112,551
2020-04-14T13:55:37,42.805,6.029,CST-1368DR,6467,9058,15178,0.114,551
2020-04-14T13:58:39,42.805,6.029,CST-1368DR,6467,9060,15182,0.113,551
2020-04-14T14:01:40,42.805,6.029,CST-1368DR,6467,9061,15183,0.112,551
2020-04-14T14:04:42,42.805,6.029,CST-1368DR,6467,9059,15181,0.113,551
2020-04-14T14:07:44,42.805,6.029,CST-1368DR,6467,9060,15181,0.113,551
2020-04-14T14:10:45,42.805,6.029,CST-1368DR,6467,9060,15182,0.113,551
2020-04-14T14:13:47,42.805,6.029,CST-1368DR,6467,9061,15183,0.112,551
2020-04-14T14:16:49,42.805,6.029,CST-1368DR,6467,9059,15180,0.113,551
2020-04-14T14:19:51,42.805,6.029,CST-1368DR,6467,9057,15176,0.114,551
2020-04-14T14:22:52,42.805,6.029,CST-1368DR,6467,9060,15181,0.113,551
2020-04-14T14:25:54,42.805,6.029,CST-1368DR,6467,9060,15181,0.113,551
2020-04-14T14:28:56,42.805,6.029,CST-1368DR,6467,9059,15181,0.113,551
2020-04-14T14:31:57,42.805,6.029,CST-1368DR,6467,9060,15181,0.113,551
2020-04-14T14:34:59,42.805,6.029,CST-1368DR,6467,9059,15181,0.113,551
2020-04-14T14:38:01,42.805,6.029,CST-1368DR,6467,9059,15180,0.113,551
2020-04-14T14:41:02,42.805,6.029,CST-1368DR,6467,9060,15181,0.113,551
2020-04-14T14:44:04,42.805,6.029,CST-1368DR,6467,9060,15182,0.113,551
2020-04-14T14:47:06,42.805,6.029,CST-1368DR,6467,9060,15181,0.113,551
2020-04-14T14:50:08,42.805,6.029,CST-1368DR,6467,9060,15181,0.113,551
2020-04-14T14:53:09,42.805,6.029,CST-1368DR,6467,9057,15177,0.114,551
2020-04-14T14:56:11,42.805,6.029,CST-1368DR,6467,9057,15177,0.114,551
2020-04-14T14:59:13,42.805,6.029,CST-1368DR,6467,9058,15178,0.114,551
2020-04-14T15:02:14,42.805,6.029,CST-1368DR,6467,9059,15180,0.113,551
2020-04-14T15:05:16,42.805,6.029,CST-1368DR,6467,9060,15181,0.113,551
2020-04-14T15:08:18,42.805,6.029,CST-1368DR,6466,9057,15179,0.114,551
2020-04-14T15:11:19,42.805,6.029,CST-1368DR,6467,9057,15177,0.114,551
2020-04-14T15:14:21,42.805,6.029,CST-1368DR,6467,9059,15181,0.113,551
2020-04-14T15:17:23,42.805,6.029,CST-1368DR,6467,9059,15181,0.113,551
2020-04-14T15:20:24,42.805,6.029,CST-1368DR,6467,9057,15176,0.114,551
2020-04-14T15:23:26,42.805,6.029,CST-1368DR,6467,9059,15181,0.113,551
2020-04-14T15:26:28,42.805,6.029,CST-1368DR,6467,9060,15181,0.113,551
2020-04-14T15:29:30,42.805,6.029,CST-1368DR,6467,9059,15180,0.113,551
2020-04-14T15:32:31,42.805,6.029,CST-1368DR,6467,9058,15178,0.114,551
2020-04-14T15:35:33,42.805,6.029,CST-1368DR,6466,9056,15177,0.114,551
2020-04-14T15:38:35,42.805,6.029,CST-1368DR,6466,9060,15183,0.112,551
2020-04-14T15:41:36,42.805,6.029,CST-1368DR,6466,9053,15173,0.115,551
2020-04-14T15:44:38,42.805,6.029,CST-1368DR,6466,9060,15183,0.112,551
2020-04-14T15:47:40,42.805,6.029,CST-1368DR,6466,9060,15184,0.112,551
2020-04-14T15:50:41,42.805,6.029,CST-1368DR,6466,9059,15183,0.112,551
2020-04-14T15:53:43,42.805,6.029,CST-1368DR,6466,9059,15183,0.112,551
2020-04-14T15:56:45,42.805,6.029,CST-1368DR,6466,9061,15185,0.112,551
2020-04-14T15:59:46,42.805,6.029,CST-1368DR,6466,9048,15163,0.118,551
2020-04-14T16:02:48,42.805,6.029,CST-1368DR,6466,9058,15181,0.113,551
2020-04-14T16:05:50,42.805,6.029,CST-1368DR,6466,9060,15184,0.112,551
2020-04-14T16:08:52,42.805,6.029,CST-1368DR,6466,9058,15180,0.113,551
2020-04-14T16:11:53,42.805,6.029,CST-1368DR,6466,9058,15181,0.113,551
2020-04-14T16:14:55,42.805,6.029,CST-1368DR,6466,9060,15184,0.112,551
2020-04-14T16:17:57,42.805,6.029,CST-1368DR,6466,9059,15182,0.113,551
2020-04-14T16:20:59,42.805,6.029,CST-1368DR,6466,9059,15181,0.113,551
2020-04-14T16:24:00,42.805,6.029,CST-1368DR,6466,9059,15182,0.113,551
2020-04-14T16:27:02,42.805,6.029,CST-1368DR,6466,9060,15184,0.112,551
2020-04-14T16:30:04,42.805,6.029,CST-1368DR,6466,9059,15182,0.113,551
2020-04-14T16:33:05,42.805,6.029,CST-1368DR,6466,9058,15181,0.113,551
2020-04-14T16:36:07,42.805,6.029,CST-1368DR,6466,9060,15183,0.112,551
2020-04-14T16:39:09,42.805,6.029,CST-1368DR,6466,9060,15184,0.112,551
2020-04-14T16:42:10,42.805,6.029,CST-1368DR,6466,9059,15182,0.113,551
2020-04-14T16:45:12,42.805,6.029,CST-1368DR,6466,9060,15184,0.112,551
2020-04-14T16:48:14,42.805,6.029,CST-1368DR,6466,9059,15183,0.112,551
2020-04-14T16:51:15,42.805,6.029,CST-1368DR,6466,9059,15182,0.113,551
2020-04-14T16:54:17,42.805,6.029,CST-1368DR,6466,9059,15183,0.112,551